Location: Moscow
(55.7500°N, 37.5830°E)
Time: 10:43:28
(UTC+03:00)

Transit 4A - Pass Details

Date: 06 December 2021
Orbit: 863 x 981 km, 66.8° (Epoch: 23 January)

Event Time Altitude Azimuth Distance (km) Brightness Sun altitude
Rises 18:12:51 0° 168° (SSE) 3,463 10.9 -17.4°
Reaches altitude 10° 18:15:55 10° 152° (SSE) 2,545 10.1 -17.8°
Enters shadow 18:19:08 20° 120° (ESE) 1,973 9.2 -18.3°
